Time,TemperatureF,DewpointF,PressureIn,WindDirection,WindDirectionDegrees,WindSpeedMPH,WindSpeedGustMPH,Humidity,HourlyPrecipIn,Conditions,Clouds,dailyrainin,SoftwareType,DateUTC
2013-07-19 00:00:00,82.8,76.7,29.95,WSW,257,1.0,1.0,82,0.00,,,0.00,Wunderground v.1.15,2013-07-19 04:00:00,
2013-07-19 00:05:00,82.8,77.1,29.95,South,173,0.0,1.0,83,0.00,,,0.00,Wunderground v.1.15,2013-07-19 04:05:00,
2013-07-19 00:10:00,82.8,77.1,29.95,SSE,159,0.0,0.0,83,0.00,,,0.00,Wunderground v.1.15,2013-07-19 04:10:00,
2013-07-19 00:15:00,82.7,77.0,29.95,SW,228,0.0,0.0,83,0.00,,,0.00,Wunderground v.1.15,2013-07-19 04:15:00,
2013-07-19 00:20:00,82.7,77.4,29.95,South,174,0.0,0.0,84,0.00,,,0.00,Wunderground v.1.15,2013-07-19 04:20:00,
2013-07-19 00:25:00,82.7,77.4,29.95,WSW,257,0.0,0.0,84,0.00,,,0.00,Wunderground v.1.15,2013-07-19 04:25:00,
2013-07-19 00:30:00,82.5,77.2,29.95,WSW,240,0.0,0.0,84,0.00,,,0.00,Wunderground v.1.15,2013-07-19 04:30:00,
2013-07-19 00:35:00,82.5,77.2,29.95,SW,235,0.0,1.0,84,0.00,,,0.00,Wunderground v.1.15,2013-07-19 04:35:00,
2013-07-19 00:45:00,82.6,77.3,29.95,West,273,1.0,1.0,84,0.00,,,0.00,Wunderground v.1.15,2013-07-19 04:45:00,
2013-07-19 00:50:00,82.7,77.4,29.96,WNW,288,1.0,1.0,84,0.00,,,0.00,Wunderground v.1.15,2013-07-19 04:50:00,
2013-07-19 01:00:00,82.7,77.4,29.96,WNW,298,1.0,1.0,84,0.00,,,0.00,Wunderground v.1.15,2013-07-19 05:00:00,
2013-07-19 01:05:00,82.7,77.4,29.96,WSW,257,1.0,1.0,84,0.00,,,0.00,Wunderground v.1.15,2013-07-19 05:05:00,
2013-07-19 01:15:00,82.8,77.5,29.96,SSW,207,1.0,1.0,84,0.00,,,0.00,Wunderground v.1.15,2013-07-19 05:15:00,
2013-07-19 01:25:00,82.7,77.7,29.96,SW,229,0.0,2.0,85,0.00,,,0.00,Wunderground v.1.15,2013-07-19 05:25:00,
2013-07-19 01:30:00,82.7,77.7,29.96,West,264,1.0,1.0,85,0.00,,,0.00,Wunderground v.1.15,2013-07-19 05:30:00,
2013-07-19 01:35:00,82.7,77.7,29.96,WNW,299,1.0,1.0,85,0.00,,,0.00,Wunderground v.1.15,2013-07-19 05:35:00,
2013-07-19 01:40:00,82.6,77.6,29.96,NW,305,1.0,3.0,85,0.00,,,0.00,Wunderground v.1.15,2013-07-19 05:40:00,
2013-07-19 01:45:00,82.6,77.6,29.96,WSW,254,1.0,3.0,85,0.00,,,0.00,Wunderground v.1.15,2013-07-19 05:45:00,
2013-07-19 01:55:00,82.6,77.3,29.95,SW,216,1.0,2.0,84,0.00,,,0.00,Wunderground v.1.15,2013-07-19 05:55:00,
2013-07-19 02:00:00,82.6,77.6,29.95,ESE,114,1.0,1.0,85,0.00,,,0.00,Wunderground v.1.15,2013-07-19 06:00:00,
2013-07-19 02:05:00,82.5,77.5,29.96,WNW,299,0.0,1.0,85,0.00,,,0.00,Wunderground v.1.15,2013-07-19 06:05:00,
2013-07-19 02:10:00,82.4,77.4,29.96,SW,214,0.0,0.0,85,0.00,,,0.00,Wunderground v.1.15,2013-07-19 06:10:00,
2013-07-19 02:15:00,82.4,77.4,29.96,NNW,332,1.0,1.0,85,0.00,,,0.00,Wunderground v.1.15,2013-07-19 06:15:00,
2013-07-19 02:25:00,82.3,77.3,29.95,NNE,22,1.0,2.0,85,0.00,,,0.00,Wunderground v.1.15,2013-07-19 06:25:00,
2013-07-19 02:35:00,82.2,77.6,29.95,WSW,246,1.0,1.0,86,0.00,,,0.00,Wunderground v.1.15,2013-07-19 06:35:00,
2013-07-19 02:40:00,82.1,77.5,29.95,WSW,242,1.0,1.0,86,0.00,,,0.00,Wunderground v.1.15,2013-07-19 06:40:00,
2013-07-19 02:45:00,82.1,77.5,29.95,NNW,336,1.0,4.0,86,0.00,,,0.00,Wunderground v.1.15,2013-07-19 06:45:00,
2013-07-19 02:50:00,82.2,77.2,29.95,NW,312,1.0,1.0,85,0.00,,,0.00,Wunderground v.1.15,2013-07-19 06:50:00,
2013-07-19 03:00:00,82.4,77.4,29.95,NW,307,1.0,2.0,85,0.00,,,0.00,Wunderground v.1.15,2013-07-19 07:00:00,
2013-07-19 03:05:00,82.5,77.5,29.95,SW,222,1.0,2.0,85,0.00,,,0.00,Wunderground v.1.15,2013-07-19 07:05:00,
2013-07-19 03:10:00,82.5,77.2,29.95,NW,315,1.0,1.0,84,0.00,,,0.00,Wunderground v.1.15,2013-07-19 07:10:00,
2013-07-19 03:15:00,82.5,77.2,29.95,SSE,167,1.0,1.0,84,0.00,,,0.00,Wunderground v.1.15,2013-07-19 07:15:00,
2013-07-19 03:20:00,82.4,77.4,29.95,SSW,207,0.0,0.0,85,0.00,,,0.00,Wunderground v.1.15,2013-07-19 07:20:00,
2013-07-19 03:25:00,82.3,77.3,29.95,North,11,0.0,0.0,85,0.00,,,0.00,Wunderground v.1.15,2013-07-19 07:25:00,
2013-07-19 03:35:00,82.1,77.5,29.95,West,263,0.0,1.0,86,0.00,,,0.00,Wunderground v.1.15,2013-07-19 07:35:00,
2013-07-19 03:45:00,81.9,77.3,29.95,SW,219,0.0,1.0,86,0.00,,,0.00,Wunderground v.1.15,2013-07-19 07:45:00,
2013-07-19 03:50:00,81.7,77.1,29.95,SW,225,0.0,0.0,86,0.00,,,0.00,Wunderground v.1.15,2013-07-19 07:50:00,
2013-07-19 03:55:00,81.6,77.4,29.95,SW,235,0.0,0.0,87,0.00,,,0.00,Wunderground v.1.15,2013-07-19 07:55:00,
2013-07-19 04:00:00,81.5,77.3,29.95,WNW,291,1.0,1.0,87,0.00,,,0.00,Wunderground v.1.15,2013-07-19 08:00:00,
2013-07-19 04:10:00,81.4,77.2,29.95,SW,236,1.0,1.0,87,0.00,,,0.00,Wunderground v.1.15,2013-07-19 08:10:00,
2013-07-19 04:15:00,81.4,77.5,29.95,WSW,243,1.0,4.0,88,0.00,,,0.00,Wunderground v.1.15,2013-07-19 08:15:00,
2013-07-19 04:20:00,81.3,77.4,29.95,West,259,1.0,1.0,88,0.00,,,0.00,Wunderground v.1.15,2013-07-19 08:20:00,
2013-07-19 04:25:00,81.2,77.3,29.95,ESE,120,1.0,1.0,88,0.00,,,0.00,Wunderground v.1.15,2013-07-19 08:25:00,
2013-07-19 04:30:00,81.2,77.3,29.95,NE,43,0.0,0.0,88,0.00,,,0.00,Wunderground v.1.15,2013-07-19 08:30:00,
2013-07-19 04:40:00,81.1,77.2,29.95,SW,231,1.0,1.0,88,0.00,,,0.00,Wunderground v.1.15,2013-07-19 08:40:00,
2013-07-19 04:45:00,81.0,77.4,29.95,SW,224,0.0,1.0,89,0.00,,,0.00,Wunderground v.1.15,2013-07-19 08:45:00,
2013-07-19 04:55:00,80.9,77.4,29.94,NW,312,1.0,1.0,89,0.00,,,0.00,Wunderground v.1.15,2013-07-19 08:55:00,
2013-07-19 05:00:00,80.8,77.3,29.95,SSW,212,0.0,2.0,89,0.00,,,0.00,Wunderground v.1.15,2013-07-19 09:00:00,
2013-07-19 05:05:00,80.8,77.3,29.94,NE,48,0.0,2.0,89,0.00,,,0.00,Wunderground v.1.15,2013-07-19 09:05:00,
2013-07-19 05:15:00,80.6,77.4,29.94,SSE,159,0.0,0.0,90,0.00,,,0.00,Wunderground v.1.15,2013-07-19 09:15:00,
2013-07-19 05:20:00,80.5,77.3,29.95,WSW,252,0.0,0.0,90,0.00,,,0.00,Wunderground v.1.15,2013-07-19 09:20:00,
2013-07-19 05:25:00,80.4,77.2,29.94,NW,317,0.0,0.0,90,0.00,,,0.00,Wunderground v.1.15,2013-07-19 09:25:00,
2013-07-19 05:30:00,80.4,77.2,29.94,South,183,0.0,1.0,90,0.00,,,0.00,Wunderground v.1.15,2013-07-19 09:30:00,
2013-07-19 05:35:00,80.3,77.1,29.94,NE,39,0.0,1.0,90,0.00,,,0.00,Wunderground v.1.15,2013-07-19 09:35:00,
2013-07-19 05:40:00,80.3,77.1,29.94,WSW,243,1.0,1.0,90,0.00,,,0.00,Wunderground v.1.15,2013-07-19 09:40:00,
2013-07-19 05:50:00,80.4,77.2,29.94,West,259,1.0,1.0,90,0.00,,,0.00,Wunderground v.1.15,2013-07-19 09:50:00,
2013-07-19 05:55:00,80.4,77.2,29.94,WNW,302,1.0,1.0,90,0.00,,,0.00,Wunderground v.1.15,2013-07-19 09:55:00,
2013-07-19 06:05:00,80.4,77.5,29.94,South,184,0.0,1.0,91,0.00,,,0.00,Wunderground v.1.15,2013-07-19 10:05:00,
2013-07-19 06:10:00,80.4,77.5,29.94,SW,215,0.0,0.0,91,0.00,,,0.00,Wunderground v.1.15,2013-07-19 10:10:00,
2013-07-19 06:15:00,80.7,77.8,29.94,SW,218,1.0,1.0,91,0.00,,,0.00,Wunderground v.1.15,2013-07-19 10:15:00,
2013-07-19 06:25:00,81.2,78.0,29.94,SSW,204,0.0,1.0,90,0.00,,,0.00,Wunderground v.1.15,2013-07-19 10:25:00,
2013-07-19 06:30:00,81.5,77.9,29.94,South,169,1.0,1.0,89,0.00,,,0.00,Wunderground v.1.15,2013-07-19 10:30:00,
2013-07-19 06:35:00,81.9,78.3,29.94,East,96,1.0,1.0,89,0.00,,,0.00,Wunderground v.1.15,2013-07-19 10:35:00,
2013-07-19 06:40:00,82.3,78.4,29.94,SSW,207,0.0,0.0,88,0.00,,,0.00,Wunderground v.1.15,2013-07-19 10:40:00,
2013-07-19 06:45:00,82.5,78.6,29.94,WNW,285,0.0,0.0,88,0.00,,,0.00,Wunderground v.1.15,2013-07-19 10:45:00,
2013-07-19 06:55:00,83.0,78.7,29.94,SSW,212,1.0,1.0,87,0.00,,,0.00,Wunderground v.1.15,2013-07-19 10:55:00,
2013-07-19 07:00:00,83.2,78.9,29.94,WSW,252,1.0,1.0,87,0.00,,,0.00,Wunderground v.1.15,2013-07-19 11:00:00,
2013-07-19 07:05:00,83.5,78.9,29.94,SW,214,1.0,1.0,86,0.00,,,0.00,Wunderground v.1.15,2013-07-19 11:05:00,
2013-07-19 07:15:00,83.9,79.3,29.94,WNW,285,1.0,1.0,86,0.00,,,0.00,Wunderground v.1.15,2013-07-19 11:15:00,
2013-07-19 07:20:00,83.8,78.8,29.94,ENE,74,1.0,1.0,85,0.00,,,0.00,Wunderground v.1.15,2013-07-19 11:20:00,
2013-07-19 07:25:00,83.9,78.9,29.94,WSW,246,1.0,1.0,85,0.00,,,0.00,Wunderground v.1.15,2013-07-19 11:25:00,
2013-07-19 07:30:00,84.3,79.3,29.94,NW,304,1.0,4.0,85,0.00,,,0.00,Wunderground v.1.15,2013-07-19 11:30:00,
2013-07-19 07:35:00,84.6,79.6,29.94,SSW,207,1.0,4.0,85,0.00,,,0.00,Wunderground v.1.15,2013-07-19 11:35:00,
2013-07-19 07:40:00,84.8,79.4,29.94,North,351,1.0,1.0,84,0.00,,,0.00,Wunderground v.1.15,2013-07-19 11:40:00,
2013-07-19 07:45:00,85.2,79.8,29.95,SW,217,1.0,4.0,84,0.00,,,0.00,Wunderground v.1.15,2013-07-19 11:45:00,
2013-07-19 07:50:00,85.2,79.8,29.95,SSW,198,1.0,2.0,84,0.00,,,0.00,Wunderground v.1.15,2013-07-19 11:50:00,
2013-07-19 07:55:00,85.5,79.7,29.95,West,271,2.0,2.0,83,0.00,,,0.00,Wunderground v.1.15,2013-07-19 11:55:00,
2013-07-19 08:05:00,86.2,80.4,29.95,WNW,289,1.0,1.0,83,0.00,,,0.00,Wunderground v.1.15,2013-07-19 12:05:00,
2013-07-19 08:10:00,86.5,80.0,29.94,SSW,212,1.0,1.0,81,0.00,,,0.00,Wunderground v.1.15,2013-07-19 12:10:00,
2013-07-19 08:15:00,86.7,80.2,29.94,NW,318,1.0,1.0,81,0.00,,,0.00,Wunderground v.1.15,2013-07-19 12:15:00,
2013-07-19 08:25:00,87.3,80.4,29.95,South,190,0.0,2.0,80,0.00,,,0.00,Wunderground v.1.15,2013-07-19 12:25:00,
2013-07-19 08:30:00,87.5,80.2,29.94,SSW,210,1.0,4.0,79,0.00,,,0.00,Wunderground v.1.15,2013-07-19 12:30:00,
2013-07-19 08:40:00,88.0,80.3,29.94,SSE,158,1.0,2.0,78,0.00,,,0.00,Wunderground v.1.15,2013-07-19 12:40:00,
2013-07-19 08:45:00,88.3,80.6,29.94,WSW,240,1.0,2.0,78,0.00,,,0.00,Wunderground v.1.15,2013-07-19 12:45:00,
2013-07-19 08:50:00,88.5,80.4,29.95,West,277,1.0,1.0,77,0.00,,,0.00,Wunderground v.1.15,2013-07-19 12:50:00,
2013-07-19 08:55:00,88.8,79.8,29.95,East,93,1.0,1.0,75,0.00,,,0.00,Wunderground v.1.15,2013-07-19 12:55:00,
2013-07-19 09:00:00,88.8,80.3,29.94,NNE,32,1.0,3.0,76,0.00,,,0.00,Wunderground v.1.15,2013-07-19 13:00:00,
2013-07-19 09:10:00,89.4,80.4,29.94,NNE,27,1.0,1.0,75,0.00,,,0.00,Wunderground v.1.15,2013-07-19 13:10:00,
2013-07-19 09:15:00,89.7,80.7,29.94,SW,231,1.0,1.0,75,0.00,,,0.00,Wunderground v.1.15,2013-07-19 13:15:00,
2013-07-19 09:20:00,89.7,80.7,29.94,SE,143,1.0,2.0,75,0.00,,,0.00,Wunderground v.1.15,2013-07-19 13:20:00,
2013-07-19 09:25:00,89.7,80.7,29.94,SSW,196,1.0,2.0,75,0.00,,,0.00,Wunderground v.1.15,2013-07-19 13:25:00,
2013-07-19 09:30:00,90.2,80.8,29.94,SSE,150,1.0,1.0,74,0.00,,,0.00,Wunderground v.1.15,2013-07-19 13:30:00,
2013-07-19 09:35:00,90.6,80.8,29.94,East,85,1.0,1.0,73,0.00,,,0.00,Wunderground v.1.15,2013-07-19 13:35:00,
2013-07-19 09:45:00,90.9,81.0,29.94,West,278,1.0,1.0,73,0.00,,,0.00,Wunderground v.1.15,2013-07-19 13:45:00,
2013-07-19 09:50:00,91.1,80.4,29.94,NW,307,1.0,6.0,71,0.00,,,0.00,Wunderground v.1.15,2013-07-19 13:50:00,
2013-07-19 09:55:00,91.0,80.3,29.94,West,277,1.0,6.0,71,0.00,,,0.00,Wunderground v.1.15,2013-07-19 13:55:00,
2013-07-19 10:00:00,91.5,81.2,29.94,ESE,111,1.0,1.0,72,0.00,,,0.00,Wunderground v.1.15,2013-07-19 14:00:00,
2013-07-19 10:05:00,92.0,80.8,29.94,NNW,346,1.0,1.0,70,0.00,,,0.00,Wunderground v.1.15,2013-07-19 14:05:00,
2013-07-19 10:10:00,92.3,80.7,29.94,West,274,2.0,2.0,69,0.00,,,0.00,Wunderground v.1.15,2013-07-19 14:10:00,
2013-07-19 10:20:00,92.2,80.6,29.94,SW,236,2.0,2.0,69,0.00,,,0.00,Wunderground v.1.15,2013-07-19 14:20:00,
2013-07-19 10:25:00,92.1,80.5,29.94,North,349,2.0,2.0,69,0.00,,,0.00,Wunderground v.1.15,2013-07-19 14:25:00,
2013-07-19 10:30:00,92.4,80.3,29.93,ESE,112,2.0,2.0,68,0.00,,,0.00,Wunderground v.1.15,2013-07-19 14:30:00,
2013-07-19 10:35:00,92.9,80.8,29.93,WNW,302,1.0,2.0,68,0.00,,,0.00,Wunderground v.1.15,2013-07-19 14:35:00,
2013-07-19 10:45:00,93.3,80.2,29.93,NNE,33,2.0,2.0,66,0.00,,,0.00,Wunderground v.1.15,2013-07-19 14:45:00,
2013-07-19 10:50:00,93.6,81.0,29.93,SW,229,2.0,2.0,67,0.00,,,0.00,Wunderground v.1.15,2013-07-19 14:50:00,
2013-07-19 10:55:00,93.7,80.2,29.93,SE,133,2.0,2.0,65,0.00,,,0.00,Wunderground v.1.15,2013-07-19 14:55:00,
2013-07-19 11:00:00,93.9,80.8,29.93,WNW,294,2.0,2.0,66,0.00,,,0.00,Wunderground v.1.15,2013-07-19 15:00:00,
2013-07-19 11:05:00,94.0,80.4,29.93,West,270,2.0,2.0,65,0.00,,,0.00,Wunderground v.1.15,2013-07-19 15:05:00,
2013-07-19 11:10:00,93.9,79.4,29.93,West,267,2.0,2.0,63,0.00,,,0.00,Wunderground v.1.15,2013-07-19 15:10:00,
2013-07-19 11:15:00,93.8,80.2,29.93,SE,143,2.0,2.0,65,0.00,,,0.00,Wunderground v.1.15,2013-07-19 15:15:00,
2013-07-19 11:20:00,93.8,79.8,29.93,WSW,246,2.0,2.0,64,0.00,,,0.00,Wunderground v.1.15,2013-07-19 15:20:00,
2013-07-19 11:25:00,93.8,79.3,29.92,SW,224,2.0,4.0,63,0.00,,,0.00,Wunderground v.1.15,2013-07-19 15:25:00,
2013-07-19 11:30:00,93.7,79.7,29.92,West,269,2.0,2.0,64,0.00,,,0.00,Wunderground v.1.15,2013-07-19 15:30:00,
2013-07-19 11:35:00,93.8,79.8,29.92,WNW,302,2.0,3.0,64,0.00,,,0.00,Wunderground v.1.15,2013-07-19 15:35:00,
2013-07-19 11:40:00,93.9,78.9,29.92,ENE,75,2.0,2.0,62,0.00,,,0.00,Wunderground v.1.15,2013-07-19 15:40:00,
2013-07-19 11:50:00,94.0,79.5,29.92,NW,309,3.0,3.0,63,0.00,,,0.00,Wunderground v.1.15,2013-07-19 15:50:00,
2013-07-19 11:55:00,94.5,80.0,29.91,SSW,204,2.0,3.0,63,0.00,,,0.00,Wunderground v.1.15,2013-07-19 15:55:00,
2013-07-19 12:00:00,95.1,79.5,29.91,NNE,30,2.0,2.0,61,0.00,,,0.00,Wunderground v.1.15,2013-07-19 16:00:00,
2013-07-19 12:05:00,94.8,79.2,29.91,WSW,243,2.0,2.0,61,0.00,,,0.00,Wunderground v.1.15,2013-07-19 16:05:00,
2013-07-19 12:10:00,94.8,78.7,29.91,SW,224,2.0,4.0,60,0.00,,,0.00,Wunderground v.1.15,2013-07-19 16:10:00,
2013-07-19 12:15:00,94.3,79.3,29.91,NNW,343,2.0,4.0,62,0.00,,,0.00,Wunderground v.1.15,2013-07-19 16:15:00,
2013-07-19 12:20:00,94.3,79.3,29.91,NW,324,2.0,2.0,62,0.00,,,0.00,Wunderground v.1.15,2013-07-19 16:20:00,
2013-07-19 12:25:00,94.4,78.9,29.91,SSE,148,1.0,2.0,61,0.00,,,0.00,Wunderground v.1.15,2013-07-19 16:25:00,
2013-07-19 12:35:00,94.9,79.3,29.90,West,264,2.0,2.0,61,0.00,,,0.00,Wunderground v.1.15,2013-07-19 16:35:00,
2013-07-19 12:40:00,95.3,78.7,29.90,South,188,2.0,3.0,59,0.00,,,0.00,Wunderground v.1.15,2013-07-19 16:40:00,
2013-07-19 12:45:00,95.4,79.3,29.90,WSW,246,2.0,3.0,60,0.00,,,0.00,Wunderground v.1.15,2013-07-19 16:45:00,
2013-07-19 12:50:00,95.0,78.4,29.90,SW,236,1.0,2.0,59,0.00,,,0.00,Wunderground v.1.15,2013-07-19 16:50:00,
2013-07-19 13:00:00,95.1,78.5,29.90,SW,228,3.0,3.0,59,0.00,,,0.00,Wunderground v.1.15,2013-07-19 17:00:00,
2013-07-19 13:10:00,95.6,79.0,29.89,SSE,153,3.0,3.0,59,0.00,,,0.00,Wunderground v.1.15,2013-07-19 17:10:00,
2013-07-19 13:15:00,96.0,78.3,29.89,NE,52,3.0,3.0,57,0.00,,,0.00,Wunderground v.1.15,2013-07-19 17:15:00,
2013-07-19 13:20:00,96.2,78.0,29.89,West,264,3.0,5.0,56,0.00,,,0.00,Wunderground v.1.15,2013-07-19 17:20:00,
2013-07-19 13:25:00,96.7,77.3,29.89,West,278,2.0,5.0,54,0.00,,,0.00,Wunderground v.1.15,2013-07-19 17:25:00,
2013-07-19 13:30:00,96.7,77.9,29.88,WNW,288,2.0,6.0,55,0.00,,,0.00,Wunderground v.1.15,2013-07-19 17:30:00,
2013-07-19 13:40:00,96.9,77.5,29.88,NW,311,3.0,4.0,54,0.00,,,0.00,Wunderground v.1.15,2013-07-19 17:40:00,
2013-07-19 13:45:00,96.9,77.5,29.88,SSW,194,3.0,4.0,54,0.00,,,0.00,Wunderground v.1.15,2013-07-19 17:45:00,
2013-07-19 13:50:00,96.9,76.9,29.88,WSW,252,3.0,3.0,53,0.00,,,0.00,Wunderground v.1.15,2013-07-19 17:50:00,
2013-07-19 14:00:00,96.8,76.8,29.87,ENE,61,2.0,2.0,53,0.00,,,0.00,Wunderground v.1.15,2013-07-19 18:00:00,
2013-07-19 14:05:00,96.8,77.4,29.87,SE,139,2.0,4.0,54,0.00,,,0.00,Wunderground v.1.15,2013-07-19 18:05:00,
2013-07-19 14:15:00,97.1,77.1,29.87,West,262,3.0,3.0,53,0.00,,,0.00,Wunderground v.1.15,2013-07-19 18:15:00,
2013-07-19 14:20:00,97.2,77.8,29.86,NNW,333,2.0,2.0,54,0.00,,,0.00,Wunderground v.1.15,2013-07-19 18:20:00,
2013-07-19 14:25:00,97.0,77.6,29.86,SW,219,2.0,4.0,54,0.00,,,0.00,Wunderground v.1.15,2013-07-19 18:25:00,
2013-07-19 14:30:00,96.4,77.0,29.86,South,175,2.0,4.0,54,0.00,,,0.00,Wunderground v.1.15,2013-07-19 18:30:00,
2013-07-19 14:35:00,96.8,76.8,29.86,East,90,3.0,4.0,53,0.00,,,0.00,Wunderground v.1.15,2013-07-19 18:35:00,
2013-07-19 14:40:00,96.8,77.4,29.86,South,191,2.0,2.0,54,0.00,,,0.00,Wunderground v.1.15,2013-07-19 18:40:00,
2013-07-19 14:50:00,97.1,77.1,29.85,East,83,2.0,2.0,53,0.00,,,0.00,Wunderground v.1.15,2013-07-19 18:50:00,
2013-07-19 14:55:00,97.1,76.5,29.85,NE,39,2.0,2.0,52,0.00,,,0.00,Wunderground v.1.15,2013-07-19 18:55:00,
2013-07-19 15:00:00,96.5,76.6,29.85,SSW,197,2.0,2.0,53,0.00,,,0.00,Wunderground v.1.15,2013-07-19 19:00:00,
2013-07-19 15:10:00,95.9,76.6,29.85,NNW,330,2.0,2.0,54,0.00,,,0.00,Wunderground v.1.15,2013-07-19 19:10:00,
2013-07-19 15:15:00,96.1,77.3,29.84,SSE,167,3.0,3.0,55,0.00,,,0.00,Wunderground v.1.15,2013-07-19 19:15:00,
2013-07-19 15:25:00,96.9,76.4,29.84,East,97,2.0,3.0,52,0.00,,,0.00,Wunderground v.1.15,2013-07-19 19:25:00,
2013-07-19 15:30:00,97.0,76.5,29.84,WSW,243,2.0,6.0,52,0.00,,,0.00,Wunderground v.1.15,2013-07-19 19:30:00,
2013-07-19 15:35:00,97.1,76.5,29.84,NW,314,2.0,6.0,52,0.00,,,0.00,Wunderground v.1.15,2013-07-19 19:35:00,
2013-07-19 15:40:00,96.9,75.8,29.84,NE,44,3.0,3.0,51,0.00,,,0.00,Wunderground v.1.15,2013-07-19 19:40:00,
2013-07-19 15:45:00,97.0,77.0,29.84,WSW,255,2.0,3.0,53,0.00,,,0.00,Wunderground v.1.15,2013-07-19 19:45:00,
2013-07-19 15:55:00,97.2,74.9,29.83,NNW,330,2.0,4.0,49,0.00,,,0.00,Wunderground v.1.15,2013-07-19 19:55:00,
2013-07-19 16:00:00,97.4,75.6,29.82,NNE,16,3.0,3.0,50,0.00,,,0.00,Wunderground v.1.15,2013-07-19 20:00:00,
2013-07-19 16:05:00,97.3,76.7,29.83,SW,222,3.0,8.0,52,0.00,,,0.00,Wunderground v.1.15,2013-07-19 20:05:00,
2013-07-19 16:10:00,96.7,76.2,29.83,ESE,115,3.0,3.0,52,0.00,,,0.00,Wunderground v.1.15,2013-07-19 20:10:00,
2013-07-19 16:20:00,96.2,76.3,29.82,SW,228,2.0,2.0,53,0.00,,,0.00,Wunderground v.1.15,2013-07-19 20:20:00,
2013-07-19 16:30:00,96.5,76.6,29.82,WNW,300,3.0,3.0,53,0.00,,,0.00,Wunderground v.1.15,2013-07-19 20:30:00,
2013-07-19 16:35:00,96.8,75.7,29.82,SSW,212,2.0,3.0,51,0.00,,,0.00,Wunderground v.1.15,2013-07-19 20:35:00,
2013-07-19 16:40:00,96.7,75.6,29.81,SSW,210,2.0,5.0,51,0.00,,,0.00,Wunderground v.1.15,2013-07-19 20:40:00,
2013-07-19 16:45:00,97.0,75.9,29.81,South,186,3.0,5.0,51,0.00,,,0.00,Wunderground v.1.15,2013-07-19 20:45:00,
2013-07-19 16:50:00,97.0,75.9,29.81,South,190,3.0,4.0,51,0.00,,,0.00,Wunderground v.1.15,2013-07-19 20:50:00,
2013-07-19 16:55:00,96.8,78.0,29.81,South,174,3.0,4.0,55,0.00,,,0.00,Wunderground v.1.15,2013-07-19 20:55:00,
2013-07-19 17:05:00,94.4,80.3,29.81,ESE,114,4.0,10.0,64,0.00,,,0.00,Wunderground v.1.15,2013-07-19 21:05:00,
2013-07-19 17:10:00,92.8,80.7,29.81,SW,232,5.0,5.0,68,0.00,,,0.00,Wunderground v.1.15,2013-07-19 21:10:00,
2013-07-19 17:20:00,91.8,80.6,29.81,SSW,204,3.0,9.0,70,0.00,,,0.00,Wunderground v.1.15,2013-07-19 21:20:00,
2013-07-19 17:25:00,91.3,80.6,29.80,SSE,154,4.0,9.0,71,0.00,,,0.00,Wunderground v.1.15,2013-07-19 21:25:00,
2013-07-19 17:30:00,91.0,80.3,29.80,SSE,159,4.0,4.0,71,0.00,,,0.00,Wunderground v.1.15,2013-07-19 21:30:00,
2013-07-19 17:40:00,90.3,80.0,29.80,SSW,200,5.0,5.0,72,0.00,,,0.00,Wunderground v.1.15,2013-07-19 21:40:00,
2013-07-19 17:45:00,90.0,80.2,29.79,SSW,210,5.0,5.0,73,0.00,,,0.00,Wunderground v.1.15,2013-07-19 21:45:00,
2013-07-19 17:50:00,89.9,80.1,29.79,SSE,149,5.0,5.0,73,0.00,,,0.00,Wunderground v.1.15,2013-07-19 21:50:00,
2013-07-19 17:55:00,90.2,80.4,29.79,South,189,5.0,5.0,73,0.00,,,0.00,Wunderground v.1.15,2013-07-19 21:55:00,
2013-07-19 18:00:00,90.2,79.9,29.79,SW,233,5.0,5.0,72,0.00,,,0.00,Wunderground v.1.15,2013-07-19 22:00:00,
2013-07-19 18:10:00,90.1,79.8,29.80,SE,140,6.0,6.0,72,0.00,,,0.00,Wunderground v.1.15,2013-07-19 22:10:00,
2013-07-19 18:15:00,90.1,79.8,29.80,WSW,257,5.0,6.0,72,0.00,,,0.00,Wunderground v.1.15,2013-07-19 22:15:00,
2013-07-19 18:20:00,89.9,80.1,29.80,SSW,207,5.0,5.0,73,0.00,,,0.00,Wunderground v.1.15,2013-07-19 22:20:00,
2013-07-19 18:30:00,89.8,80.0,29.80,South,184,4.0,6.0,73,0.00,,,0.00,Wunderground v.1.15,2013-07-19 22:30:00,
2013-07-19 18:35:00,89.8,80.0,29.80,West,263,5.0,6.0,73,0.00,,,0.00,Wunderground v.1.15,2013-07-19 22:35:00,
2013-07-19 18:45:00,89.9,80.1,29.80,South,169,5.0,5.0,73,0.00,,,0.00,Wunderground v.1.15,2013-07-19 22:45:00,
2013-07-19 18:50:00,89.9,80.1,29.80,SW,215,5.0,8.0,73,0.00,,,0.00,Wunderground v.1.15,2013-07-19 22:50:00,
2013-07-19 18:55:00,89.9,80.1,29.80,West,269,5.0,8.0,73,0.00,,,0.00,Wunderground v.1.15,2013-07-19 22:55:00,
2013-07-19 19:00:00,89.9,80.1,29.80,SE,142,4.0,4.0,73,0.00,,,0.00,Wunderground v.1.15,2013-07-19 23:00:00,
2013-07-19 19:05:00,90.0,80.2,29.80,SE,139,3.0,4.0,73,0.00,,,0.00,Wunderground v.1.15,2013-07-19 23:05:00,
2013-07-19 19:10:00,90.0,79.8,29.80,SSE,159,3.0,5.0,72,0.00,,,0.00,Wunderground v.1.15,2013-07-19 23:10:00,
2013-07-19 19:20:00,90.2,79.1,29.81,SE,142,3.0,3.0,70,0.00,,,0.00,Wunderground v.1.15,2013-07-19 23:20:00,
2013-07-19 19:25:00,90.3,78.7,29.81,WNW,288,3.0,3.0,69,0.00,,,0.00,Wunderground v.1.15,2013-07-19 23:25:00,
2013-07-19 19:30:00,90.2,78.6,29.80,West,269,3.0,3.0,69,0.00,,,0.00,Wunderground v.1.15,2013-07-19 23:30:00,
2013-07-19 19:40:00,89.7,78.6,29.81,NE,39,3.0,4.0,70,0.00,,,0.00,Wunderground v.1.15,2013-07-19 23:40:00,
2013-07-19 19:45:00,89.3,78.2,29.80,South,186,3.0,4.0,70,0.00,,,0.00,Wunderground v.1.15,2013-07-19 23:45:00,
2013-07-19 19:55:00,88.7,78.5,29.80,SW,226,2.0,4.0,72,0.00,,,0.00,Wunderground v.1.15,2013-07-19 23:55:00,
2013-07-19 20:00:00,88.4,78.2,29.80,WSW,257,2.0,3.0,72,0.00,,,0.00,Wunderground v.1.15,2013-07-20 00:00:00,
2013-07-19 20:05:00,88.2,78.0,29.80,SE,135,3.0,3.0,72,0.00,,,0.00,Wunderground v.1.15,2013-07-20 00:05:00,
2013-07-19 20:10:00,88.1,78.3,29.81,South,169,3.0,3.0,73,0.00,,,0.00,Wunderground v.1.15,2013-07-20 00:10:00,
2013-07-19 20:15:00,88.0,78.3,29.81,SE,132,2.0,3.0,73,0.00,,,0.00,Wunderground v.1.15,2013-07-20 00:15:00,
2013-07-19 20:25:00,87.6,77.9,29.81,SW,232,2.0,4.0,73,0.00,,,0.00,Wunderground v.1.15,2013-07-20 00:25:00,
2013-07-19 20:30:00,87.4,77.7,29.81,WSW,255,2.0,9.0,73,0.00,,,0.00,Wunderground v.1.15,2013-07-20 00:30:00,
2013-07-19 20:35:00,87.3,78.0,29.82,SSE,153,2.0,9.0,74,0.00,,,0.00,Wunderground v.1.15,2013-07-20 00:35:00,
2013-07-19 20:40:00,87.1,77.8,29.82,South,186,2.0,2.0,74,0.00,,,0.00,Wunderground v.1.15,2013-07-20 00:40:00,
2013-07-19 20:50:00,86.9,77.6,29.83,North,354,2.0,2.0,74,0.00,,,0.00,Wunderground v.1.15,2013-07-20 00:50:00,
2013-07-19 21:00:00,86.9,77.6,29.83,East,91,2.0,2.0,74,0.00,,,0.00,Wunderground v.1.15,2013-07-20 01:00:00,
2013-07-19 21:05:00,86.9,77.2,29.83,East,84,2.0,2.0,73,0.00,,,0.00,Wunderground v.1.15,2013-07-20 01:05:00,
2013-07-19 21:10:00,86.8,77.5,29.83,SSW,207,2.0,2.0,74,0.00,,,0.00,Wunderground v.1.15,2013-07-20 01:10:00,
2013-07-19 21:15:00,86.5,77.2,29.83,NE,51,1.0,2.0,74,0.00,,,0.00,Wunderground v.1.15,2013-07-20 01:15:00,
2013-07-19 21:20:00,86.4,77.1,29.84,West,271,1.0,1.0,74,0.00,,,0.00,Wunderground v.1.15,2013-07-20 01:20:00,
2013-07-19 21:25:00,86.5,77.2,29.84,SSE,160,2.0,2.0,74,0.00,,,0.00,Wunderground v.1.15,2013-07-20 01:25:00,
2013-07-19 21:35:00,86.6,77.3,29.84,WSW,243,2.0,2.0,74,0.00,,,0.00,Wunderground v.1.15,2013-07-20 01:35:00,
2013-07-19 21:40:00,86.7,77.4,29.84,NNE,22,2.0,2.0,74,0.00,,,0.00,Wunderground v.1.15,2013-07-20 01:40:00,
2013-07-19 21:45:00,86.7,77.4,29.84,SSW,207,2.0,2.0,74,0.00,,,0.00,Wunderground v.1.15,2013-07-20 01:45:00,
2013-07-19 21:55:00,86.6,77.3,29.84,SW,219,2.0,4.0,74,0.00,,,0.00,Wunderground v.1.15,2013-07-20 01:55:00,
2013-07-19 22:00:00,86.5,77.6,29.84,North,356,2.0,2.0,75,0.00,,,0.00,Wunderground v.1.15,2013-07-20 02:00:00,
2013-07-19 22:10:00,86.4,77.5,29.83,WSW,238,2.0,2.0,75,0.00,,,0.00,Wunderground v.1.15,2013-07-20 02:10:00,
2013-07-19 22:15:00,86.2,77.3,29.83,WSW,240,1.0,2.0,75,0.00,,,0.00,Wunderground v.1.15,2013-07-20 02:15:00,
2013-07-19 22:20:00,86.1,77.6,29.82,SSW,205,2.0,2.0,76,0.00,,,0.00,Wunderground v.1.15,2013-07-20 02:20:00,
2013-07-19 22:25:00,86.0,77.5,29.82,NNE,22,1.0,2.0,76,0.00,,,0.00,Wunderground v.1.15,2013-07-20 02:25:00,
2013-07-19 22:30:00,85.9,77.5,29.82,WSW,251,1.0,1.0,76,0.00,,,0.00,Wunderground v.1.15,2013-07-20 02:30:00,
2013-07-19 22:40:00,85.5,77.5,29.81,ESE,112,1.0,1.0,77,0.00,,,0.00,Wunderground v.1.15,2013-07-20 02:40:00,
2013-07-19 22:45:00,85.5,77.5,29.81,SSW,204,2.0,4.0,77,0.00,,,0.00,Wunderground v.1.15,2013-07-20 02:45:00,
2013-07-19 22:50:00,85.4,77.8,29.81,SE,139,1.0,1.0,78,0.00,,,0.00,Wunderground v.1.15,2013-07-20 02:50:00,
2013-07-19 22:55:00,85.2,77.6,29.81,ESE,103,1.0,1.0,78,0.00,,,0.00,Wunderground v.1.15,2013-07-20 02:55:00,
2013-07-19 23:05:00,85.0,77.8,29.80,SW,235,1.0,1.0,79,0.00,,,0.00,Wunderground v.1.15,2013-07-20 03:05:00,
2013-07-19 23:15:00,84.7,77.5,29.80,SSW,194,1.0,1.0,79,0.00,,,0.00,Wunderground v.1.15,2013-07-20 03:15:00,
2013-07-19 23:20:00,84.8,77.6,29.80,SW,229,1.0,5.0,79,0.00,,,0.00,Wunderground v.1.15,2013-07-20 03:20:00,
2013-07-19 23:25:00,84.8,77.6,29.80,SE,131,2.0,5.0,79,0.00,,,0.00,Wunderground v.1.15,2013-07-20 03:25:00,
2013-07-19 23:30:00,84.9,77.7,29.80,SW,233,2.0,4.0,79,0.00,,,0.00,Wunderground v.1.15,2013-07-20 03:30:00,
2013-07-19 23:35:00,84.9,77.7,29.80,SSW,205,2.0,4.0,79,0.00,,,0.00,Wunderground v.1.15,2013-07-20 03:35:00,
2013-07-19 23:40:00,84.8,77.6,29.80,SW,219,1.0,1.0,79,0.00,,,0.00,Wunderground v.1.15,2013-07-20 03:40:00,
2013-07-19 23:50:00,84.8,77.6,29.80,West,274,1.0,1.0,79,0.00,,,0.00,Wunderground v.1.15,2013-07-20 03:50:00,
2013-07-19 23:55:00,84.7,77.5,29.80,SE,143,1.0,1.0,79,0.00,,,0.00,Wunderground v.1.15,2013-07-20 03:55:00,